This demonstration page uses our WeatherBlox Daily Observations layout. Learn more.

Left ArrowRight Arrow

Hourly Observations for March 24, 2020

Temp ( °F °C ) Dew Point ( °F °C ) Humidity (%) Winds ( mph kmh ) Pressure ( in mb ) Visibility ( mi km ) Precip ( " mm )
12:31 am 00:31 Partly Cloudy 46 7.8 41 5 83 83 SSE 8 13 30.01 1016 10 16.0934 0 0
12:54 am 00:54 Clear 45 7.2 41 5 86 86 SE 7 11 29.99 1016 10 16.0934 0 0
1:50 am 01:50 Mostly Clear 45 7 43 6 93 93 SE 9 15 30.02 1016 9 14.48406 0 0
1:54 am 01:54 Partly Cloudy 45 7.2 42 5.6 90 90 SE 8 13 30 1016 8 12.87472 0 0
2:54 am 02:54 Clear 43 6.1 40 4.4 89 89 SSE 8 13 29.98 1015 7 11.26538 0 0
3:14 am 03:14 Partly Cloudy 44 6.7 41 5 89 89 SE 13 20 30 1016 7 11.26538 0 0
3:23 am 03:23 Mostly Cloudy 44 6.7 41 5 89 89 SE 12 19 29.99 1015 7 11.26538 0 0
3:54 am 03:54 Cloudy 45 7.2 42 5.6 90 90 SE 8 13 29.94 1014 7 11.26538 0 0
4:52 am 04:52 Cloudy 45 7 43 6 93 93 SE 8 13 29.95 1014 9 14.48406 0 0
4:54 am 04:54 Cloudy 45 7.2 42 5.6 90 90 SE 8 13 29.93 1013 9 14.48406 0 0
5:12 am 05:12 Cloudy 45 7.2 42 5.6 90 90 SE 8 13 29.94 1014 10 16.0934 0 0
5:27 am 05:27 Cloudy 45 7.2 42 5.6 90 90 SE 6 9 29.94 1014 10 16.0934 0 0
5:36 am 05:36 Cloudy 45 7.2 42 5.6 90 90 SE 7 11 29.94 1014 10 16.0934 0 0
5:54 am 05:54 Cloudy 45 7.2 42 5.6 90 90 SE 8 13 29.92 1013 10 16.0934 0 0
6:54 am 06:54 Cloudy 45 7.2 41 5 86 86 ESE 7 11 29.93 1014 10 16.0934 0 0
7:54 am 07:54 Cloudy 44 6.7 41 5 89 89 E 7 11 29.95 1014 10 16.0934 0 0
8:54 am 08:54 Cloudy 45 7.2 41 5 86 86 ESE 5 7 29.96 1015 10 16.0934 0 0
9:54 am 09:54 Cloudy 45 7.2 41 5 86 86 SE 6 9 29.97 1015 10 16.0934 0 0
10:54 am 10:54 Cloudy 47 8.3 42 5.6 83 83 ESE 10 17 29.97 1015 8 12.87472 0 0
11:54 am 11:54 Cloudy 48 8.9 42 5.6 80 80 SE 9 15 29.97 1015 8 12.87472 0 0
12:15 pm 12:15 Cloudy 48 8.9 42 5.6 80 80 SE 10 17 29.99 1015 7 11.26538 0 0
12:54 pm 12:54 Cloudy 49 9.4 42 5.6 77 77 SE 10 17 29.96 1015 10 16.0934 0 0
1:54 pm 13:54 Cloudy 50 10 42 5.6 74 74 SE 8 13 29.95 1014 10 16.0934 0 0
2:52 pm 14:52 Cloudy 52 11 43 6 72 72 S 10 17 29.93 1013 10 16.0934 0 0
2:54 pm 14:54 Cloudy 52 11.1 43 6.1 72 72 S 13 20 29.93 1013 10 16.0934 0 0
3:51 pm 15:51 Partly Cloudy 55 13 45 7 67 67 SSE 15 24 29.89 1012 10 16.0934 0 0
3:54 pm 15:54 Mostly Sunny 57 13.9 45 7.2 64 64 SSE 15 24 29.88 1012 10 16.0934 0 0
4:54 pm 16:54 Mostly Sunny 58 14.4 46 7.8 65 65 S 14 22 29.87 1012 10 16.0934 0 0
5:54 pm 17:54 Sunny 57 13.9 46 7.8 67 67 S 15 24 29.85 1011 10 16.0934 0 0
6:54 pm 18:54 Mostly Sunny 55 12.8 45 7.2 69 69 S 13 20 29.87 1012 10 16.0934 0 0
7:54 pm 19:54 Clear 50 10 44 6.7 80 80 SSE 12 19 29.86 1011 10 16.0934 0 0
8:54 pm 20:54 Clear 48 8.9 44 6.7 86 86 SSE 12 19 29.86 1011 10 16.0934 0 0
9:54 pm 21:54 Clear 47 8.3 44 6.7 90 90 SSE 10 17 29.88 1012 9 14.48406 0 0
10:16 pm 22:16 Mostly Cloudy 47 8.3 44 6.7 90 90 S 7 11 29.9 1013 8 12.87472 0 0
10:43 pm 22:43 Cloudy 49 9.4 45 7.2 86 86 S 8 13 29.89 1012 9 14.48406 0 0
10:54 pm 22:54 Mostly Cloudy 47 8.3 44 6.7 90 90 S 8 13 29.88 1012 9 14.48406 0 0
11:07 pm 23:07 Partly Cloudy 45 7.2 42 5.6 90 90 S 7 11 29.9 1013 8 12.87472 0 0
11:54 pm 23:54 Clear 44 6.7 42 5.6 93 93 SSE 5 7 29.88 1012 7 11.26538 0 0

Powered by AerisWeather